Time,TemperatureF,DewpointF,PressureIn,WindDirection,WindDirectionDegrees,WindSpeedMPH,WindSpeedGustMPH,Humidity,HourlyPrecipIn,Conditions,Clouds,dailyrainin,SoftwareType,DateUTC
2013-10-06 00:03:00,69.1,68.8,29.92,East,90,2.2,-999.0,99,-99.99,,,0.00,Acu-Link.com,2013-10-06 04:03:00,
2013-10-06 00:19:00,68.7,68.4,29.91,SSE,157,1.7,-999.0,99,-99.99,,,0.03,Acu-Link.com,2013-10-06 04:19:00,
2013-10-06 00:34:00,68.4,68.1,29.90,SSE,157,2.2,-999.0,99,-99.99,,,0.03,Acu-Link.com,2013-10-06 04:34:00,
2013-10-06 00:49:00,68.2,67.9,29.90,ENE,67,3.2,-999.0,99,-99.99,,,0.03,Acu-Link.com,2013-10-06 04:49:00,
2013-10-06 01:04:00,67.8,67.5,29.90,SE,135,1.7,-999.0,99,-99.99,,,0.03,Acu-Link.com,2013-10-06 05:04:00,
2013-10-06 01:20:00,67.8,67.5,29.90,NNE,22,1.7,-999.0,99,-99.99,,,0.03,Acu-Link.com,2013-10-06 05:20:00,
2013-10-06 01:35:00,67.8,67.5,29.91,ESE,112,1.1,-999.0,99,-99.99,,,0.03,Acu-Link.com,2013-10-06 05:35:00,
2013-10-06 01:50:00,67.3,67.0,29.90,East,90,0.0,-999.0,99,-99.99,,,0.03,Acu-Link.com,2013-10-06 05:50:00,
2013-10-06 02:06:00,67.1,66.8,29.91,ESE,112,0.0,-999.0,99,-99.99,,,0.03,Acu-Link.com,2013-10-06 06:06:00,
2013-10-06 02:21:00,66.9,66.6,29.90,West,270,0.0,-999.0,99,-99.99,,,0.03,Acu-Link.com,2013-10-06 06:21:00,
2013-10-06 02:37:00,66.9,66.6,29.90,West,270,0.0,-999.0,99,-99.99,,,0.03,Acu-Link.com,2013-10-06 06:37:00,
2013-10-06 02:53:00,66.7,66.4,29.90,West,270,0.0,-999.0,99,-99.99,,,0.03,Acu-Link.com,2013-10-06 06:53:00,
2013-10-06 03:08:00,66.4,66.1,29.90,West,270,0.0,-999.0,99,-99.99,,,0.03,Acu-Link.com,2013-10-06 07:08:00,
2013-10-06 03:24:00,66.4,66.1,29.89,SSE,157,0.0,-999.0,99,-99.99,,,0.03,Acu-Link.com,2013-10-06 07:24:00,
2013-10-06 03:39:00,66.0,65.7,29.90,West,270,0.0,-999.0,99,-99.99,,,0.03,Acu-Link.com,2013-10-06 07:39:00,
2013-10-06 03:55:00,66.2,65.9,29.89,South,180,0.0,-999.0,99,-99.99,,,0.03,Acu-Link.com,2013-10-06 07:55:00,
2013-10-06 04:11:00,66.2,65.9,29.90,West,270,0.0,-999.0,99,-99.99,,,0.03,Acu-Link.com,2013-10-06 08:11:00,
2013-10-06 04:26:00,66.4,66.1,29.89,South,180,0.0,-999.0,99,-99.99,,,0.03,Acu-Link.com,2013-10-06 08:26:00,
2013-10-06 04:41:00,66.4,66.1,29.89,South,180,0.0,-999.0,99,-99.99,,,0.03,Acu-Link.com,2013-10-06 08:41:00,
2013-10-06 04:57:00,66.2,65.9,29.89,South,180,1.1,-999.0,99,-99.99,,,0.03,Acu-Link.com,2013-10-06 08:57:00,
2013-10-06 05:27:00,65.3,65.0,29.89,West,270,0.0,-999.0,99,-99.99,,,0.03,Acu-Link.com,2013-10-06 09:27:00,
2013-10-06 05:42:00,65.3,65.0,29.89,ESE,112,0.0,-999.0,99,-99.99,,,0.03,Acu-Link.com,2013-10-06 09:42:00,
2013-10-06 05:58:00,64.9,64.6,29.89,SW,225,0.0,-999.0,99,-99.99,,,0.03,Acu-Link.com,2013-10-06 09:58:00,
2013-10-06 06:13:00,63.7,63.4,29.89,South,180,0.0,-999.0,99,-99.99,,,0.03,Acu-Link.com,2013-10-06 10:13:00,
2013-10-06 06:28:00,63.0,62.7,29.90,West,270,0.0,-999.0,99,-99.99,,,0.03,Acu-Link.com,2013-10-06 10:28:00,
2013-10-06 06:44:00,62.8,62.5,29.89,WSW,247,0.0,-999.0,99,-99.99,,,0.03,Acu-Link.com,2013-10-06 10:44:00,
2013-10-06 06:59:00,62.1,61.8,29.89,SSW,202,0.0,-999.0,99,-99.99,,,0.03,Acu-Link.com,2013-10-06 10:59:00,
2013-10-06 07:14:00,61.9,61.6,29.88,West,270,0.0,-999.0,99,-99.99,,,0.03,Acu-Link.com,2013-10-06 11:14:00,
2013-10-06 07:29:00,61.9,61.6,29.88,West,270,0.0,-999.0,99,-99.99,,,0.03,Acu-Link.com,2013-10-06 11:29:00,
2013-10-06 07:45:00,62.2,61.9,29.89,West,270,0.0,-999.0,99,-99.99,,,0.03,Acu-Link.com,2013-10-06 11:45:00,
2013-10-06 08:00:00,63.0,62.7,29.90,WSW,247,0.0,-999.0,99,-99.99,,,0.03,Acu-Link.com,2013-10-06 12:00:00,
2013-10-06 08:15:00,65.5,65.2,29.90,South,180,0.0,-999.0,99,-99.99,,,0.03,Acu-Link.com,2013-10-06 12:15:00,
2013-10-06 08:31:00,67.5,67.2,29.90,SW,225,0.0,-999.0,99,-99.99,,,0.03,Acu-Link.com,2013-10-06 12:31:00,
2013-10-06 08:46:00,69.8,69.2,29.90,SSE,157,0.0,-999.0,98,-99.99,,,0.03,Acu-Link.com,2013-10-06 12:46:00,
2013-10-06 09:01:00,72.0,70.2,29.91,ENE,67,1.7,-999.0,94,-99.99,,,0.03,Acu-Link.com,2013-10-06 13:01:00,
2013-10-06 09:17:00,72.3,70.2,29.91,SSW,202,0.0,-999.0,93,-99.99,,,0.03,Acu-Link.com,2013-10-06 13:17:00,
2013-10-06 09:32:00,72.9,71.1,29.90,West,270,0.0,-999.0,94,-99.99,,,0.03,Acu-Link.com,2013-10-06 13:32:00,
2013-10-06 09:47:00,73.8,71.0,29.91,South,180,1.7,-999.0,91,-99.99,,,0.03,Acu-Link.com,2013-10-06 13:47:00,
2013-10-06 10:03:00,75.6,71.1,29.91,SSE,157,1.7,-999.0,86,-99.99,,,0.03,Acu-Link.com,2013-10-06 14:03:00,
2013-10-06 10:18:00,75.9,70.4,29.90,ENE,67,3.7,-999.0,83,-99.99,,,0.03,Acu-Link.com,2013-10-06 14:18:00,
2013-10-06 10:33:00,77.7,70.7,29.90,SSE,157,3.2,-999.0,79,-99.99,,,0.03,Acu-Link.com,2013-10-06 14:33:00,
2013-10-06 10:48:00,76.6,70.0,29.91,ESE,112,2.7,-999.0,80,-99.99,,,0.03,Acu-Link.com,2013-10-06 14:48:00,
2013-10-06 11:03:00,76.8,70.1,29.89,WSW,247,4.2,-999.0,80,-99.99,,,0.03,Acu-Link.com,2013-10-06 15:03:00,
2013-10-06 11:18:00,76.8,70.1,29.90,WNW,292,7.3,-999.0,80,-99.99,,,0.03,Acu-Link.com,2013-10-06 15:18:00,
2013-10-06 11:34:00,77.5,70.5,29.89,North,0,2.2,-999.0,79,-99.99,,,0.03,Acu-Link.com,2013-10-06 15:34:00,
2013-10-06 11:49:00,77.4,70.0,29.88,WSW,247,1.7,-999.0,78,-99.99,,,0.03,Acu-Link.com,2013-10-06 15:49:00,
2013-10-06 12:04:00,77.7,70.3,29.88,ESE,112,3.2,-999.0,78,-99.99,,,0.03,Acu-Link.com,2013-10-06 16:04:00,
2013-10-06 12:19:00,78.1,69.9,29.87,NE,45,2.7,-999.0,76,-99.99,,,0.03,Acu-Link.com,2013-10-06 16:19:00,
2013-10-06 12:34:00,80.4,70.5,29.87,ENE,67,5.3,-999.0,72,-99.99,,,0.03,Acu-Link.com,2013-10-06 16:34:00,
2013-10-06 12:50:00,81.0,70.7,29.88,WSW,247,5.3,-999.0,71,-99.99,,,0.03,Acu-Link.com,2013-10-06 16:50:00,
2013-10-06 13:05:00,80.2,69.9,29.86,SE,135,4.7,-999.0,71,-99.99,,,0.03,Acu-Link.com,2013-10-06 17:05:00,
2013-10-06 13:20:00,81.5,70.7,29.85,South,180,5.3,-999.0,70,-99.99,,,0.03,Acu-Link.com,2013-10-06 17:20:00,
2013-10-06 13:35:00,81.1,69.9,29.84,NNW,337,3.7,-999.0,69,-99.99,,,0.03,Acu-Link.com,2013-10-06 17:35:00,
2013-10-06 13:50:00,81.1,69.5,29.83,ESE,112,4.2,-999.0,68,-99.99,,,0.03,Acu-Link.com,2013-10-06 17:50:00,
2013-10-06 14:05:00,81.9,70.3,29.84,West,270,3.2,-999.0,68,-99.99,,,0.03,Acu-Link.com,2013-10-06 18:05:00,
2013-10-06 14:21:00,81.3,69.7,29.83,West,270,4.2,-999.0,68,-99.99,,,0.03,Acu-Link.com,2013-10-06 18:21:00,
2013-10-06 14:36:00,82.2,69.7,29.81,South,180,3.7,-999.0,66,-99.99,,,0.03,Acu-Link.com,2013-10-06 18:36:00,
2013-10-06 14:51:00,82.8,69.4,29.81,SW,225,3.2,-999.0,64,-99.99,,,0.03,Acu-Link.com,2013-10-06 18:51:00,
2013-10-06 15:07:00,82.2,69.2,29.82,West,270,4.2,-999.0,65,-99.99,,,0.03,Acu-Link.com,2013-10-06 19:07:00,
2013-10-06 15:22:00,81.7,69.7,29.80,NW,315,1.1,-999.0,67,-99.99,,,0.03,Acu-Link.com,2013-10-06 19:22:00,
2013-10-06 15:37:00,81.5,69.0,29.80,SSW,202,1.7,-999.0,66,-99.99,,,0.03,Acu-Link.com,2013-10-06 19:37:00,
2013-10-06 15:52:00,81.9,69.4,29.80,NNE,22,3.7,-999.0,66,-99.99,,,0.03,Acu-Link.com,2013-10-06 19:52:00,
2013-10-06 16:07:00,81.7,69.7,29.80,NNE,22,2.7,-999.0,67,-99.99,,,0.03,Acu-Link.com,2013-10-06 20:07:00,
2013-10-06 16:23:00,81.3,69.3,29.80,East,90,4.2,-999.0,67,-99.99,,,0.03,Acu-Link.com,2013-10-06 20:23:00,
2013-10-06 16:38:00,82.4,69.9,29.79,WNW,292,3.7,-999.0,66,-99.99,,,0.03,Acu-Link.com,2013-10-06 20:38:00,
2013-10-06 16:53:00,81.7,69.7,29.79,SW,225,4.2,-999.0,67,-99.99,,,0.03,Acu-Link.com,2013-10-06 20:53:00,
2013-10-06 17:08:00,79.5,69.3,29.79,East,90,5.3,-999.0,71,-99.99,,,0.03,Acu-Link.com,2013-10-06 21:08:00,
2013-10-06 17:23:00,79.5,69.3,29.79,NE,45,6.3,-999.0,71,-99.99,,,0.03,Acu-Link.com,2013-10-06 21:23:00,
2013-10-06 17:39:00,79.0,69.2,29.80,South,180,3.2,-999.0,72,-99.99,,,0.03,Acu-Link.com,2013-10-06 21:39:00,
2013-10-06 17:54:00,76.6,68.5,29.79,WSW,247,2.7,-999.0,76,-99.99,,,0.03,Acu-Link.com,2013-10-06 21:54:00,
2013-10-06 18:09:00,75.9,68.5,29.80,NW,315,2.7,-999.0,78,-99.99,,,0.03,Acu-Link.com,2013-10-06 22:09:00,
2013-10-06 18:24:00,74.8,68.2,29.80,ESE,112,3.7,-999.0,80,-99.99,,,0.03,Acu-Link.com,2013-10-06 22:24:00,
2013-10-06 18:39:00,73.9,68.0,29.80,SE,135,3.7,-999.0,82,-99.99,,,0.03,Acu-Link.com,2013-10-06 22:39:00,
2013-10-06 18:55:00,73.2,67.7,29.79,ENE,67,4.2,-999.0,83,-99.99,,,0.03,Acu-Link.com,2013-10-06 22:55:00,
2013-10-06 19:10:00,72.7,67.9,29.81,ESE,112,3.2,-999.0,85,-99.99,,,0.03,Acu-Link.com,2013-10-06 23:10:00,
2013-10-06 19:25:00,72.7,67.9,29.80,SE,135,2.7,-999.0,85,-99.99,,,0.03,Acu-Link.com,2013-10-06 23:25:00,
2013-10-06 19:40:00,72.5,67.7,29.81,SSE,157,3.7,-999.0,85,-99.99,,,0.03,Acu-Link.com,2013-10-06 23:40:00,
2013-10-06 19:55:00,72.1,67.7,29.80,WSW,247,1.7,-999.0,86,-99.99,,,0.03,Acu-Link.com,2013-10-06 23:55:00,
2013-10-06 20:10:00,71.6,67.5,29.79,East,90,4.2,-999.0,87,-99.99,,,0.03,Acu-Link.com,2013-10-07 00:10:00,
2013-10-06 20:26:00,71.4,67.7,29.79,SSE,157,1.7,-999.0,88,-99.99,,,0.03,Acu-Link.com,2013-10-07 00:26:00,
2013-10-06 20:41:00,71.1,67.7,29.79,SSE,157,5.8,-999.0,89,-99.99,,,0.03,Acu-Link.com,2013-10-07 00:41:00,
2013-10-06 20:56:00,70.9,67.8,29.80,ENE,67,4.7,-999.0,90,-99.99,,,0.03,Acu-Link.com,2013-10-07 00:56:00,
2013-10-06 21:12:00,70.9,68.1,29.80,ESE,112,5.8,-999.0,91,-99.99,,,0.03,Acu-Link.com,2013-10-07 01:12:00,
2013-10-06 21:27:00,70.9,68.1,29.79,SSW,202,2.2,-999.0,91,-99.99,,,0.03,Acu-Link.com,2013-10-07 01:27:00,
2013-10-06 21:42:00,71.1,68.3,29.79,West,270,1.1,-999.0,91,-99.99,,,0.03,Acu-Link.com,2013-10-07 01:42:00,
2013-10-06 21:58:00,71.1,68.3,29.79,SE,135,2.7,-999.0,91,-99.99,,,0.03,Acu-Link.com,2013-10-07 01:58:00,
2013-10-06 22:13:00,70.7,67.9,29.79,South,180,1.7,-999.0,91,-99.99,,,0.03,Acu-Link.com,2013-10-07 02:13:00,
2013-10-06 22:28:00,71.4,68.6,29.79,ESE,112,6.3,-999.0,91,-99.99,,,0.03,Acu-Link.com,2013-10-07 02:28:00,
2013-10-06 22:43:00,71.1,68.0,29.78,ENE,67,3.7,-999.0,90,-99.99,,,0.03,Acu-Link.com,2013-10-07 02:43:00,
2013-10-06 22:59:00,70.9,68.1,29.79,WNW,292,1.7,-999.0,91,-99.99,,,0.03,Acu-Link.com,2013-10-07 02:59:00,
2013-10-06 23:14:00,70.9,68.1,29.79,ESE,112,2.7,-999.0,91,-99.99,,,0.03,Acu-Link.com,2013-10-07 03:14:00,
2013-10-06 23:29:00,70.7,67.9,29.78,ESE,112,2.7,-999.0,91,-99.99,,,0.03,Acu-Link.com,2013-10-07 03:29:00,
2013-10-06 23:44:00,71.2,67.8,29.79,West,270,3.7,-999.0,89,-99.99,,,0.03,Acu-Link.com,2013-10-07 03:44:00,